Wind_Speed
10 11 11 10 11 11 12 12 12 12 11 11 11 10 10 10 10 9 9 9 8 8 7 7 6 6 6 6 6 6 5 5 5 5 4 3 3 3 3 3 2 2 1
11 12 12 11 12 12 12 12 12 12 12 12 12 12 11 11 10 10 10 10 10 9 8 8 7 7 7 7 7 7 7 6 6 6 5 5 4 4 4 3 3 2 2
13 13 13 13 13 13 13 13 12 12 12 12 12 13 12 12 11 10 11 11 11 10 10 9 9 8 8 8 8 8 8 8 8 7 6 6 5 5 4 4 3 3 3
15 15 15 15 14 14 14 14 14 13 13 13 13 13 13 13 12 12 11 11 11 11 11 11 10 10 10 9 10 9 9 9 10 9 8 7 7 6 5 5 4 4 4
16 16 17 17 17 16 16 16 16 15 14 13 13 13 13 13 13 12 12 12 12 12 12 12 12 11 11 11 11 11 10 10 10 10 10 9 8 8 7 6 6 6 6
18 18 18 19 19 18 18 18 17 17 16 15 15 15 15 14 14 14 14 13 13 13 14 13 13 13 13 13 13 12 12 11 11 11 11 10 10 9 9 8 8 8 7
20 20 20 20 20 20 20 20 19 19 19 18 17 17 17 16 16 16 16 16 15 15 15 15 15 14 14 14 14 14 13 13 12 12 12 12 11 11 11 10 9 9 9
22 22 22 22 22 22 21 21 21 21 21 21 20 19 18 18 18 18 17 17 17 17 17 17 17 16 16 16 16 16 15 14 13 13 13 13 13 13 12 12 11 11 11
23 23 23 23 24 23 23 23 23 23 23 23 22 22 21 21 20 20 19 19 19 19 18 18 18 18 18 18 18 18 17 17 16 15 15 15 15 14 14 14 13 12 12
25 25 25 25 25 25 25 25 25 25 25 25 24 24 23 23 23 22 22 21 21 21 20 20 20 20 21 21 20 20 19 19 18 18 17 17 17 17 16 16 15 14 14
27 27 27 27 27 28 27 27 27 27 26 26 26 26 26 25 24 24 24 23 23 23 22 22 22 22 22 22 22 22 21 20 21 20 19 19 19 19 19 18 17 17 16
29 29 29 29 30 29 29 29 29 29 29 28 28 29 28 27 27 26 26 25 25 25 24 24 24 24 24 23 23 23 23 22 22 22 21 21 21 21 21 20 20 19 18
31 31 31 31 31 31 31 31 31 31 31 31 30 30 30 30 29 29 29 28 27 27 27 27 27 26 26 26 25 25 24 25 24 24 23 23 22 22 22 22 22 22 21
33 33 33 33 33 33 32 33 33 33 33 33 33 32 32 31 31 30 30 30 30 29 29 29 29 28 28 28 28 27 26 26 26 26 26 25 25 24 24 24 24 24 23
35 35 34 34 35 35 35 35 35 35 35 35 35 35 34 33 33 33 32 32 32 32 31 31 31 31 30 30 29 29 29 28 29 28 28 28 27 26 26 26 26 26 25
36 36 36 36 36 37 36 37 37 37 37 37 37 37 37 36 36 36 35 35 34 35 35 34 33 33 33 32 31 31 31 31 31 30 30 30 30 29 29 28 28 28 28
38 38 38 38 38 38 38 38 39 39 39 39 39 39 39 39 39 38 38 38 37 37 37 37 36 36 36 35 34 34 33 33 33 32 32 32 32 32 31 31 30 30 30
38 39 39 40 40 40 40 40 40 41 41 41 41 41 41 41 41 41 41 40 40 40 39 39 39 38 38 38 37 37 36 35 35 34 34 34 34 34 33 33 33 32 32
39 40 40 41 42 42 42 42 42 42 43 43 43 43 43 43 42 42 43 43 43 43 42 42 42 41 41 41 40 39 39 38 37 37 37 36 36 36 36 36 35 35 34
40 40 40 41 42 43 43 44 44 44 44 45 45 45 45 44 44 44 45 45 45 45 45 45 44 44 44 43 43 42 41 41 39 39 39 38 38 38 38 38 38 37 37
40 40 41 42 42 43 44 45 45 45 46 46 46 46 45 45 45 45 46 47 47 47 47 47 47 47 46 46 45 44 43 43 43 42 41 41 40 40 40 40 41 40 40
41 41 42 42 43 43 44 45 46 47 47 47 47 47 46 46 45 45 46 47 48 48 48 48 49 49 49 48 47 47 46 45 45 44 44 44 43 43 43 43 43 43 43
42 42 42 42 43 44 44 45 46 47 47 47 47 48 48 47 47 47 47 47 48 48 48 48 48 49 49 49 49 49 48 47 47 46 46 46 46 46 46 45 45 46 45
42 42 42 42 43 44 44 45 45 46 47 47 48 49 49 48 48 49 49 49 48 49 49 49 50 50 50 50 50 50 50 49 49 49 48 48 48 48 48 48 48 48 48
41 42 42 43 43 43 44 45 46 47 47 48 49 49 49 49 49 49 49 49 49 49 49 49 50 50 50 50 50 51 52 51 51 51 50 50 50 51 51 51 51 51 51
42 42 42 43 43 44 44 45 46 47 47 48 48 48 48 48 48 49 50 49 49 48 48 49 49 49 49 49 50 51 52 52 52 53 52 52 52 52 52 53 53 53 54
Wind_Direction
238 234 231 229 228 229 230 233 236 236 236 234 232 232 235 238 234 231 232 234 233 235 238 243 252 253 254 254 252 249 251 255 258 258 258 255 253 249 249 252 248 246 246
241 238 236 233 229 230 232 233 235 238 235 235 235 235 237 239 239 235 235 237 236 240 243 247 251 252 254 257 255 252 252 255 260 258 257 255 253 249 246 248 242 242 238
242 240 238 236 233 234 235 235 237 238 238 239 239 239 240 241 242 242 240 239 238 241 244 248 250 250 255 259 259 257 255 255 257 256 253 249 246 246 247 250 243 242 237
246 243 240 237 237 240 239 237 238 240 242 243 243 242 241 242 244 246 246 245 244 245 246 248 251 252 255 259 260 259 258 257 256 254 251 245 244 244 245 247 249 248 243
249 246 244 242 241 243 244 242 242 244 246 246 245 245 245 245 247 250 250 250 251 252 252 251 251 253 255 257 258 258 258 258 256 253 251 245 240 241 245 246 249 249 246
252 250 247 246 246 246 247 246 246 246 247 248 247 246 246 247 247 250 251 251 253 255 254 255 255 256 258 259 259 258 259 259 256 255 252 248 244 243 244 245 245 245 246
253 253 251 249 248 248 249 250 249 248 248 249 249 248 248 249 250 252 253 253 253 254 255 255 255 257 258 259 260 260 259 259 256 255 251 251 251 247 245 245 246 246 245
253 252 252 252 251 249 250 251 251 250 250 250 250 248 249 250 252 253 253 255 256 256 255 255 256 257 259 260 259 259 258 258 256 255 252 251 251 250 250 249 249 249 249
253 252 252 253 253 252 251 250 250 252 251 250 250 250 250 251 252 253 254 255 256 257 257 257 257 258 259 260 260 259 259 257 255 256 254 253 251 252 253 252 249 252 251
254 253 253 253 253 253 252 252 251 252 252 251 250 251 251 252 253 254 256 256 256 257 258 259 259 259 260 260 260 260 260 257 254 255 255 255 253 252 254 255 253 254 253
255 254 254 254 254 254 253 253 253 253 253 253 253 252 252 252 253 254 255 257 257 258 259 261 261 261 261 261 261 260 260 259 255 254 255 255 254 252 252 254 255 255 254
256 255 255 254 254 255 255 254 254 254 253 254 254 254 253 253 254 255 256 257 258 259 260 261 262 261 261 261 261 261 260 260 257 255 256 256 255 253 252 254 255 256 256
257 257 256 256 256 256 256 255 255 255 255 254 254 254 254 255 256 256 258 258 258 259 260 260 260 261 260 260 261 262 261 259 258 256 256 256 255 254 252 253 254 256 255
258 257 257 256 256 256 256 256 257 257 255 255 255 255 256 257 258 258 258 259 258 259 260 260 260 260 260 261 261 261 261 261 259 258 256 256 255 254 253 253 253 255 256
259 258 257 256 256 257 257 257 257 258 257 256 256 256 257 258 258 258 258 258 259 260 260 260 260 260 260 261 261 261 261 262 261 260 257 255 255 255 254 253 253 254 255
259 258 258 258 258 258 257 257 257 258 258 258 257 257 258 259 260 260 259 259 260 260 260 260 260 259 260 260 261 261 261 262 262 261 258 256 255 255 255 255 254 254 254
260 259 259 259 259 259 259 258 258 258 259 259 259 260 259 259 260 260 259 259 260 260 260 261 260 260 260 260 261 261 261 261 262 260 259 256 255 255 255 255 255 254 254
260 260 260 260 260 260 259 259 259 258 259 259 260 260 260 260 260 260 260 260 259 260 260 261 261 261 261 261 261 261 261 261 261 260 259 258 256 255 255 255 255 255 255
261 260 259 259 260 260 259 259 259 259 259 260 260 260 260 260 260 260 260 260 260 260 260 261 261 262 262 261 261 261 262 262 261 260 259 259 257 256 256 255 255 255 255
261 260 261 261 260 260 260 259 259 260 260 261 260 260 260 260 260 260 260 260 260 260 260 260 261 262 262 262 261 261 262 261 261 261 260 259 258 256 256 255 255 255 255
261 261 260 261 261 261 261 260 260 260 260 261 260 260 260 260 261 261 260 260 260 260 260 260 261 261 262 262 261 261 261 262 262 261 261 259 258 257 256 256 255 255 255
263 262 261 261 261 261 261 261 261 260 260 260 260 260 260 260 260 261 261 261 260 260 260 260 260 261 262 262 262 261 260 260 261 261 260 259 258 258 257 256 256 256 256
264 263 262 261 261 261 262 261 261 261 261 261 260 259 260 260 260 260 260 261 261 260 261 261 261 261 261 262 263 262 260 259 259 260 260 259 259 258 257 256 256 256 256
264 264 263 262 262 261 261 261 262 261 261 261 261 261 260 260 260 260 261 262 262 262 263 262 262 262 262 262 262 262 261 260 260 259 259 259 259 259 258 257 256 256 256
264 264 262 262 262 262 262 262 262 262 262 262 262 262 261 261 261 261 261 262 262 263 263 263 262 262 262 262 262 262 262 262 261 260 259 259 260 259 259 259 257 256 256
264 264 263 263 263 262 262 263 264 263 263 262 262 262 262 262 262 262 261 261 262 262 262 262 262 261 261 262 262 262 263 263 263 262 261 260 260 260 260 260 259 258 257
Height
5821 5822 5823 5824 5825 5826 5827 5828 5829 5830 5831 5832 5833 5834 5834 5835 5836 5837 5837 5838 5839 5840 5840 5841 5841 5842 5842 5842 5843 5843 5844 5844 5845 5845 5845 5845 5846 5846 5846 5846 5847 5847 5847
5819 5820 5821 5822 5823 5824 5826 5827 5828 5828 5829 5830 5831 5832 5833 5833 5834 5835 5836 5837 5837 5838 5839 5839 5840 5841 5841 5842 5842 5842 5843 5843 5844 5844 5844 5845 5845 5845 5846 5846 5846 5846 5846
5817 5818 5819 5820 5821 5822 5823 5825 5826 5827 5827 5828 5829 5830 5831 5832 5832 5833 5834 5835 5836 5836 5837 5838 5839 5839 5840 5840 5841 5841 5842 5842 5843 5843 5844 5844 5845 5845 5845 5845 5846 5846 5846
5815 5816 5817 5818 5819 5820 5821 5822 5823 5824 5825 5826 5827 5828 5829 5829 5830 5831 5832 5833 5834 5834 5835 5836 5837 5838 5838 5839 5839 5839 5840 5841 5841 5842 5842 5843 5843 5844 5844 5844 5845 5845 5845
5812 5813 5814 5815 5816 5817 5818 5820 5821 5822 5823 5824 5825 5825 5826 5827 5828 5829 5830 5831 5831 5832 5833 5834 5835 5835 5836 5837 5837 5838 5838 5839 5839 5840 5841 5841 5842 5843 5843 5843 5844 5844 5844
5809 5809 5811 5812 5813 5814 5815 5816 5818 5819 5820 5821 5822 5823 5824 5825 5826 5826 5827 5828 5829 5830 5831 5831 5832 5833 5834 5834 5835 5835 5836 5837 5837 5838 5839 5840 5840 5841 5841 5842 5842 5843 5843
5805 5806 5807 5808 5809 5810 5812 5813 5814 5815 5817 5818 5819 5820 5821 5822 5823 5824 5824 5825 5826 5827 5828 5828 5829 5830 5831 5832 5832 5833 5834 5834 5835 5836 5837 5837 5838 5839 5840 5840 5840 5841 5841
5801 5802 5803 5804 5805 5807 5808 5809 5810 5811 5813 5814 5815 5817 5818 5818 5819 5820 5821 5822 5823 5824 5825 5825 5826 5827 5828 5829 5829 5830 5831 5832 5833 5833 5834 5835 5836 5837 5837 5838 5838 5839 5840
5796 5797 5798 5799 5801 5802 5803 5805 5806 5807 5808 5810 5811 5812 5814 5815 5816 5817 5818 5818 5819 5820 5821 5822 5823 5823 5824 5825 5826 5827 5828 5829 5830 5830 5831 5832 5833 5834 5835 5835 5836 5836 5837
5791 5792 5793 5794 5795 5797 5798 5799 5801 5802 5803 5805 5806 5808 5809 5810 5811 5813 5813 5814 5815 5816 5817 5818 5819 5819 5820 5821 5822 5823 5824 5825 5826 5827 5828 5829 5830 5831 5832 5832 5833 5834 5834
5785 5786 5787 5788 5789 5791 5792 5794 5795 5796 5798 5799 5801 5803 5804 5805 5807 5808 5809 5810 5811 5811 5812 5813 5814 5815 5816 5817 5818 5819 5820 5821 5822 5823 5824 5825 5826 5827 5828 5829 5829 5830 5831
5779 5780 5781 5782 5783 5784 5786 5787 5789 5790 5792 5793 5795 5797 5798 5800 5801 5802 5804 5805 5806 5806 5807 5808 5809 5810 5811 5812 5813 5814 5815 5816 5817 5818 5819 5820 5821 5822 5823 5824 5825 5826 5827
5772 5773 5774 5775 5776 5778 5779 5780 5782 5784 5785 5787 5789 5790 5792 5793 5795 5796 5798 5799 5800 5801 5802 5803 5804 5805 5806 5807 5808 5809 5810 5811 5812 5813 5814 5815 5816 5817 5818 5819 5821 5822 5823
5765 5766 5767 5768 5769 5770 5772 5773 5775 5776 5778 5780 5781 5783 5785 5786 5788 5789 5791 5792 5793 5794 5796 5797 5798 5799 5800 5801 5802 5803 5804 5805 5806 5807 5808 5810 5811 5812 5813 5814 5815 5817 5818
5757 5758 5759 5760 5761 5762 5764 5765 5767 5768 5770 5772 5774 5776 5777 5779 5781 5782 5784 5785 5786 5787 5789 5790 5791 5792 5793 5794 5795 5797 5798 5799 5800 5801 5802 5803 5805 5806 5807 5808 5810 5811 5812
5748 5749 5750 5751 5752 5754 5755 5756 5758 5760 5761 5763 5765 5767 5769 5771 5773 5774 5776 5777 5778 5780 5781 5782 5784 5785 5786 5787 5789 5790 5791 5792 5793 5794 5795 5797 5798 5799 5801 5802 5803 5805 5806
5739 5740 5741 5742 5743 5745 5746 5747 5749 5751 5752 5754 5756 5758 5760 5762 5764 5765 5767 5768 5770 5771 5773 5774 5776 5777 5778 5780 5781 5782 5783 5784 5785 5787 5788 5789 5791 5792 5794 5795 5796 5798 5799
5729 5730 5732 5733 5734 5735 5737 5738 5739 5741 5743 5744 5746 5748 5750 5752 5754 5756 5757 5759 5760 5762 5764 5765 5766 5768 5770 5771 5772 5774 5775 5776 5777 5778 5780 5781 5783 5784 5786 5787 5789 5790 5792
5720 5720 5722 5723 5724 5725 5726 5728 5729 5731 5732 5734 5736 5738 5740 5742 5743 5745 5747 5748 5750 5752 5753 5755 5757 5758 5760 5761 5763 5764 5766 5767 5768 5770 5771 5772 5774 5775 5777 5779 5780 5782 5784
5709 5710 5711 5712 5713 5714 5715 5717 5719 5720 5722 5723 5725 5727 5729 5731 5733 5734 5736 5737 5739 5741 5742 5744 5746 5748 5749 5751 5752 5754 5756 5757 5758 5760 5761 5763 5764 5766 5768 5770 5771 5773 5775
5699 5700 5701 5701 5702 5703 5704 5705 5707 5709 5710 5712 5714 5715 5717 5719 5721 5723 5724 5725 5727 5729 5731 5733 5734 5736 5737 5739 5741 5743 5745 5746 5748 5749 5751 5752 5754 5756 5758 5760 5762 5763 5765
5688 5689 5689 5690 5691 5692 5693 5694 5695 5696 5698 5699 5701 5703 5705 5707 5709 5710 5712 5713 5715 5716 5718 5720 5722 5724 5725 5726 5728 5730 5733 5736 5737 5738 5740 5741 5743 5745 5747 5749 5751 5753 5755
5678 5678 5678 5679 5679 5680 5681 5682 5683 5684 5686 5687 5689 5691 5693 5695 5697 5698 5699 5701 5702 5704 5705 5707 5709 5711 5713 5714 5715 5717 5720 5722 5725 5727 5728 5730 5731 5733 5736 5738 5739 5741 5744
5667 5667 5667 5667 5668 5668 5669 5670 5671 5672 5674 5676 5677 5679 5680 5682 5684 5685 5687 5688 5690 5691 5693 5694 5696 5697 5699 5701 5702 5704 5706 5708 5711 5714 5716 5717 5719 5721 5723 5725 5727 5729 5731
5655 5656 5656 5656 5656 5657 5658 5659 5660 5661 5662 5663 5665 5666 5668 5669 5671 5672 5674 5675 5676 5678 5679 5681 5682 5684 5686 5687 5689 5690 5692 5694 5696 5699 5702 5704 5705 5707 5709 5711 5713 5716 5718
5644 5644 5645 5645 5646 5646 5647 5647 5648 5649 5650 5651 5652 5654 5655 5657 5658 5659 5661 5662 5663 5665 5666 5667 5669 5670 5672 5674 5675 5677 5678 5680 5682 5684 5687 5689 5691 5693 5695 5697 5699 5701 5704